STARLINK-4720, 53800

Orbit data source: Space-Track

STARLINK-4720, 53800 is a payload satellite owned by SpaceX/Seattle (US) in LEO that was launched on Sun, 11 Sep 2022 UTC via an FALCON 9 launch vehicle from the Air Force Eastern Test Range (AFETR). Payload-class satellites include a variety of spacecraft equipped with specific instruments for various scientific and technological missions. These include communications satellites like Starlink; space stations such as the ISS; scientific satellites like the Hubble; Earth observation satellites from companies like Planet Labs, Umbra, and HawkEye 360; GPS; miniature CubeSats for education and research; and military/defense satellites.

Loading next visibility...
Identifier
53800, 2022-111AD
Orbit
LEO
Country
Flag of USUS
Related business
Manufacturer
SpaceX/Seattle
Mission
Operational Commercial Communications
Bus & Motor
STARLINK, Unknown motor
Mass
305 kg wet, ~290 kg dry
Launch date (UTC)
2022-09-11 (3 years ago)
Launch vehicle
FALCON 9
Launch site
Air Force Eastern Test Range (AFETR)
Object type
Payload
Rocket body
Debris
Shape & HBR
Box + 1 Pan, 4.4 m
Radar Cross Section
13.562 m², Large (>1 m²)

Expand to show TLE details & history
Last TLE update: 15 hours ago

TLE from 15 hours ago
0 STARLINK-4720
1 53800U 22111AD  25258.52763162 -.00000041  00000-0  15518-4 0  9997
2 53800  53.2185 330.4030 0001268  87.1601 272.9536 15.08844154167373
Epoch: 2025-09-15T12:39Z
TLE epoch observation values (Epoch: 2025-09-15T12:39:47.371Z)
Latitude
-0.00007°
Longitude
145.72457°
Altitude
540.583 km
Speed
7.593 km/s
True Right ascension
22h 01m 36s
True Declination
0° 00' 00"
Sunlit
Object was in full shadow at epoch
Visualization orbit readout
Latitude
Unknown
Longitude
Unknown
Altitude
Unknown
Speed
Unknown
Apparent Right ascension
Unknown
Apparent Declination
Unknown
Sunlit
N/A
Visualization observer readout
Local Sidereal Time
20:48:27
Azimuth
Unknown
Elevation
Unknown
Doppler factor
Unknown
Orbital elements
Apogee altitude
540.853 km
Perigee altitude
539.098 km
Semi-major axis
6,918.112 km
Eccentricity
0.00013
Inclination
53.2185°
RAAN
330.403°
Arg. of periapsis
87.1601°
True anomaly
272.93909°
Mean anomaly
272.9536°
Eccentric anomaly
272.94634°
Mean motion
3.77191 °/min
Orbital period
95.44 mins
BSTAR
0.000015518
Loading maneuver chart data...
Computing Atmospheric mass density...
Loading historical data...
Loading historical data...
Loading historical data...
Loading historical data...
Loading historical data...
Loading historical data...
Loading historical data...

Documentation

Showing up to 5 results
|